This is the latest recevied weather packets stored in our database for station/object OM3WYM-13. If no packets are shown the sender has not sent any weather packets the latest 10 day(s).
| Time | Temp. | Humidity | Pressure | Rain* | Wind** | Luminosity | Snow |
|---|---|---|---|---|---|---|---|
| 1777515008 | -2.22° C | 69% | 1029.6 hPa | - | - | - | - |
| 1777514407 | -2.22° C | 69% | 1029.5 hPa | - | - | - | - |
| 1777513808 | -2.22° C | 67% | 1029.6 hPa | - | - | - | - |
| 1777513208 | -1.67° C | 67% | 1029.5 hPa | - | - | - | - |
| 1777512008 | -1.11° C | 64% | 1029.4 hPa | - | - | - | - |
| 1777511408 | -1.11° C | 64% | 1029.2 hPa | - | - | - | - |
| 1777510208 | -0.56° C | 61% | 1029.1 hPa | - | - | - | - |
| 1777509008 | 0° C | 58% | 1029 hPa | - | - | - | - |
| 1777508408 | 0.56° C | 56% | 1029.1 hPa | - | - | - | - |
| 1777507808 | 0.56° C | 56% | 1029 hPa | - | - | - | - |
| 1777507208 | 0.56° C | 55% | 1029 hPa | - | - | - | - |
| 1777506608 | 1.11° C | 55% | 1028.9 hPa | - | - | - | - |
| 1777506008 | 1.11° C | 54% | 1028.9 hPa | - | - | - | - |
| 1777502408 | 1.67° C | 51% | 1028.7 hPa | - | - | - | - |
| 1777501208 | 1.67° C | 51% | 1028.6 hPa | - | - | - | - |
| 1777500608 | 1.67° C | 51% | 1028.5 hPa | - | - | - | - |
| 1777499408 | 2.22° C | 49% | 1028.3 hPa | - | - | - | - |
| 1777498808 | 2.78° C | 48% | 1028.1 hPa | - | - | - | - |
| 1777497608 | 2.78° C | 47% | 1027.9 hPa | - | - | - | - |
| 1777497008 | 3.33° C | 45% | 1027.8 hPa | - | - | - | - |
| 1777496408 | 3.89° C | 44% | 1027.7 hPa | - | - | - | - |
| 1777495808 | 3.89° C | 44% | 1027.7 hPa | - | - | - | - |
| 1777494008 | 3.89° C | 42% | 1027.4 hPa | - | - | - | - |
| 1777490408 | 4.44° C | 38% | 1026.7 hPa | - | - | - | - |
| 1777488608 | 5° C | 36% | 1026.2 hPa | - | - | - | - |
* Rain since midnight (hover to see other rain measurements)
** Current wind speed in m/s (hover to see current wind gust speed)